SCP
-0 -0 -0 -0 -0 -0 -0 -0 -0 -0 -0 -0 -0 -0 -0 -0 -0 -0 -0 -0 -0 -0 -0 0 0 -0 0 0 0 0 -0 0 0 0 0 0 0 0 0 0 0 0 0 0 0 0 -0
0 -0 -0 -0 0 -0 -0 -0 -0 -0 -0 -0 -0 -0 -0 -0 -0 -0 -0 -0 -0 0 0 0 0 0 0 0 -0 -0 -0 0 0 0 0 0 0 0 0 0 0 0 0 0 0 0 0
-0 0 -0 -0 -0 -0 -0 -0 -0 -0 -0 -0 -0 -0 -0 -0 -0 -0 -0 0 0 0 0 0 0 0 0 0 0 -0 0 0 0 0 0 0 0 0 0 0 0 0 0 0 0 0 0
0 0 0 0 -0 -0 -0 -0 -0 -0 -0 -0 -0 -0 -0 -0 -0 -0 -0 -0 0 -0 -0 0 0 0 -0 0 0 0 0 0 0 0 0 0 0 0 0 0 0 0 0 0 0 0 0
0 0 0 0 0 -0 -0 -0 -0 -0 -0 -0 -0 -0 -0 -0 -0 -0 -0 -0 -0 -0 -0 0 0 0 0 0 0 0 0 0 0 0 0 0 0 0 0 0 0 0 0 0 0 0 0
0 0 0 0 0 0 -0 -0 -0 -0 -0 -0 -0 -0 -0 -0 -0 -0 -0 0 0 0 0 0 0 0 0 0 0 -0 0 0 0 0 0 0 0 0 0 0 0 0 0 0 0 0 0
0 0 -0 -0 -0 -0 -0 -0 -0 -0 -0 -0 -0 -0 -0 -0 -0 0 0 0 0 0 0 0 0 0 0 0 0 0 0 0 0 0 0 0 0 0 0 0 0 0 0 0 0 0 0
-0 -0 -0 -0 -0 -0 -0 -0 -0 -0 -0 -0 -0 -0 -0 -0 -0 -0 0 0 0 0 0 0 0 0 -0 0 0 0 0 0 0 0 0 0 0 0 0 0 0 0 0 0 0 0 0
-0 -0 -0 -0 -0 -0 -0 -0 -0 -0 -0 -0 -0 -0 -0 -0 -0 0 0 0 0 0 0 0 0 0 0 0 0 0 0 0 0 0 0 0 0 0 0 0 0 0 0 0 0 0 0
-0 -0 0 0 0 0 -0 -0 -0 -0 -0 -0 -0 -0 -0 -0 0 0 0 0 0 0 0 0 -0 -0 0 0 0 0 0 0 0 0 0 0 0 0 0 0 0 0 0 0 0 0 0
0 0 0 0 0 0 0 0 -0 -0 -0 -0 -0 -0 0 0 0 0 0 0 0 0 0 -0 -0 -0 0 0 0 0 0 0 0 0 0 0 0 0 0 0 0 0 0 0 0 0 0
0 0 0 0 0 0 0 0 -0 -0 -0 -0 -0 -0 0 0 0 0 0 0 0 0 0 0 0 0 0 0 0 0 0 0 0 0 0 0 0 0 0 0 0 0 0 0 0 0 0
0 0 0 0 0 0 0 0 0 0 -0 -0 -0 0 0 0 0 0 0 0 0 0 0 0 0 0 0 0 0 0 0 0 0 0 0 0 0 0 0 0 0 0 0 0 0 0 0
0 0 0 0 0 0 0 0 0 0 -0 -0 -0 0 0 0 0 0 0 0 0 0 0 0 -0 0 0 0 0 0 0 0 0 0 0 0 0 0 0 0 0 0 0 0 0 0 0
0 0 0 0 0 0 0 0 0 0 0 0 0 0 0 0 0 0 0 0 0 0 0 0 0 0 0 0 0 0 0 0 0 0 0 0 0 0 0 0 0 0 0 0 0 0 0
0 0 0 0 0 0 0 0 0 0 0 0 0 0 0 0 0 0 0 0 0 0 0 0 0 0 0 0 0 0 0 0 0 0 0 0 0 0 0 0 0 0 0 0 0 0 0
0 0 0 0 0 0 0 0 0 0 0 0 -0 0 0 0 0 0 0 0 0 0 0 0 0 0 0 0 0 0 0 0 0 0 -0 0 0 0 0 0 0 0 0 0 0 0 0
0 0 0 0 0 0 0 0 0 0 0 -0 -0 0 0 0 0 0 0 0 0 0 0 0 0 0 0 0 0 0 0 0 0 0 0 0 0 0 0 0 0 0 0 0 0 0 0
0 0 0 0 0 0 0 0 0 0 0 -0 -0 -0 0 0 0 0 0 0 0 0 0 0 0 0 0 0 0 0 0 0 0 0 0 0 0 0 0 0 0 0 0 0 0 0 0
0 0 0 0 0 0 0 0 0 0 0 0 0 0 0 0 0 0 0 0 0 0 0 0 0 0 0 0 0 0 0 -0 -0 0 0 0 0 0 0 0 0 0 0 0 0 0 0
0 0 0 0 0 0 0 0 0 0 0 0 0 0 0 0 0 0 0 0 0 0 0 0 -0 0 0 0 0 0 -0 0 -0 -0 0 0 0 0 0 0 0 0 0 0 0 0 0
0 0 0 0 0 0 0 0 0 0 0 0 0 0 0 0 0 0 0 0 0 0 0 0 0 0 0 0 0 0 0 0 -0 -0 0 0 0 0 0 0 0 0 0 0 0 0 0
0 0 0 0 0 0 0 0 0 0 0 0 0 0 0 0 0 0 0 0 0 0 0 0 0 0 0 0 0 0 0 0 0 0 0 0 0 0 0 0 0 0 0 0 0 0 0
0 0 0 0 0 0 0 0 0 0 0 0 0 0 0 0 0 0 0 0 0 0 0 0 0 0 0 0 0 0 0 0 0 0 0 0 0 0 0 0 0 0 0 0 0 0 0
0 0 0 0 0 0 0 0 0 0 0 0 0 0 0 0 0 0 0 0 0 0 0 0 0 0 0 0 -0 0 0 0 0 0 0 0 0 -0 0 0 0 0 0 0 0 0 0
0 0 0 0 0 0 0 0 0 0 0 0 0 0 0 0 0 0 0 0 0 0 0 0 0 0 0 0 0 0 0 0 0 0 -0 0 0 0 0 0 0 0 0 0 0 0 0
0 0 0 0 0 0 0 0 0 0 0 0 0 0 0 0 0 0 0 0 0 0 0 0 0 0 0 0 0 0 0 -0 0 0 0 0 0 0 0 0 0 0 0 0 0 0 0
0 0 0 0 0 0 0 0 0 0 0 0 0 0 0 0 0 0 0 0 0 0 0 0 0 -0 0 0 0 0 0 0 0 0 0 0 0 0 0 0 0 0 0 0 0 0 0
0 0 0 0 0 0 0 0 0 0 0 0 0 0 0 0 0 0 0 0 0 0 0 0 0 0 0 0 0 -0 -0 -0 0 0 0 0 0 0 0 0 0 0 0 0 0 0 0
Wind_Speed_500mb
41 42 43 44 45 46 46 47 47 48 49 49 51 53 54 44 32 29 27 21 14 5 10 12 13 13 16 9 13 7 21 12 10 16 21 17 16 13 2 9 9 8 1 2 14 24 21
44 44 44 44 45 46 46 46 47 47 47 47 47 47 48 48 38 31 32 23 11 5 11 13 14 14 15 8 6 2 15 8 3 9 14 22 12 18 5 7 4 8 5 2 6 6 8
42 44 46 46 46 47 48 48 48 48 48 47 46 44 43 44 43 35 32 22 8 4 8 10 11 13 22 22 10 3 7 5 3 12 9 18 19 14 18 14 25 9 7 11 13 17 10
44 44 45 46 47 47 49 50 50 50 49 48 47 44 42 40 41 37 29 19 4 7 8 10 11 14 18 6 21 21 9 13 14 8 8 18 19 18 7 12 16 8 9 3 16 14 13
44 45 45 46 48 49 49 50 50 50 50 49 48 46 43 40 39 36 22 14 10 5 8 11 13 10 24 10 33 26 21 17 16 23 15 16 14 5 6 7 10 8 6 12 17 12 11
45 46 46 47 48 49 51 52 53 53 52 52 50 47 43 39 38 35 18 16 17 12 10 16 22 16 28 15 27 27 19 21 14 6 11 10 8 2 7 8 10 10 8 7 5 2 6
44 45 47 48 49 49 51 53 54 54 55 54 54 51 45 36 33 23 22 18 24 4 8 24 26 31 32 9 30 34 21 15 10 10 6 13 5 15 24 18 12 8 3 4 8 9 4
45 46 48 49 49 49 50 51 53 55 56 56 57 55 50 35 25 16 23 24 16 26 27 39 53 65 59 47 17 25 19 17 12 11 3 9 13 28 18 14 15 9 5 7 12 6 4
46 48 48 47 49 51 52 54 54 55 56 57 57 58 56 40 16 9 17 38 19 32 14 39 36 46 66 51 41 38 32 33 10 6 13 13 17 12 14 14 11 7 8 8 14 6 7
48 47 46 47 48 51 53 53 55 56 56 56 55 55 53 47 6 24 6 24 19 31 8 15 7 7 25 30 15 42 33 27 10 10 9 13 17 11 13 13 12 7 8 3 8 9 7
48 45 45 46 48 50 51 52 53 55 58 57 56 57 53 41 37 19 24 16 18 14 6 8 3 4 27 27 9 6 37 23 12 9 5 16 22 11 12 11 14 13 11 8 5 3 4
44 42 42 44 47 49 49 51 54 56 58 59 58 58 55 41 31 13 22 20 17 10 10 9 6 4 13 36 8 15 10 12 9 6 7 16 25 7 9 1 3 8 10 13 9 7 4
42 42 43 45 47 49 50 53 54 56 60 61 61 61 39 31 29 12 14 12 10 5 11 4 17 17 15 7 12 15 15 11 13 4 7 7 9 9 14 9 1 11 12 7 8 4 12
43 42 43 44 46 47 49 51 54 56 59 63 62 47 29 27 26 4 19 10 5 8 12 13 22 16 7 9 11 11 3 11 11 8 6 7 15 10 8 18 22 13 18 11 14 6 8
43 42 42 43 45 47 50 53 55 58 59 64 63 40 24 34 26 17 6 5 12 8 8 23 31 12 5 22 7 10 11 20 20 27 19 13 15 15 4 8 21 9 9 17 6 2 2
42 42 42 44 46 48 52 54 58 60 59 59 63 53 4 43 18 12 7 10 9 18 31 28 14 12 23 31 18 11 7 10 9 16 34 17 22 11 7 11 2 11 11 8 5 6 9
41 43 44 44 47 48 50 54 58 61 61 58 46 27 8 41 24 7 6 11 10 38 36 9 25 23 12 13 19 12 14 26 23 7 12 8 11 12 13 12 19 5 4 6 9 10 10
42 43 45 46 45 48 50 52 56 60 62 58 27 9 40 49 12 4 2 8 30 34 27 14 9 11 10 21 12 14 17 11 49 27 12 12 11 10 22 8 17 16 18 14 10 10 9
42 43 44 46 46 46 48 49 50 52 56 58 35 17 15 45 4 7 15 17 15 19 17 11 8 9 7 7 13 6 18 27 41 22 11 9 4 3 16 12 5 10 11 13 8 7 19
44 43 43 45 47 48 48 46 47 47 46 45 19 7 11 27 13 7 11 10 10 31 23 20 18 15 8 17 11 15 29 20 48 39 50 34 13 18 26 17 10 9 14 28 23 10 18
41 42 43 45 46 46 48 48 47 45 42 37 7 9 9 7 21 29 25 12 28 22 14 26 13 16 17 17 25 26 12 27 27 23 29 13 15 16 18 19 16 13 12 14 21 29 21
41 43 45 47 48 50 49 49 48 44 42 22 12 13 16 23 36 21 9 10 35 33 30 29 22 25 21 14 16 30 17 8 9 11 14 12 13 15 36 28 25 31 15 17 28 23 24
45 47 48 49 50 51 51 48 46 39 27 12 14 32 27 16 11 9 12 27 33 35 29 40 34 24 24 24 32 57 57 49 23 10 8 6 8 12 25 31 24 20 43 37 29 32 20
46 49 51 53 52 51 49 47 42 35 26 30 34 35 20 24 20 18 23 41 33 43 44 42 46 18 28 53 57 42 35 35 36 32 33 23 22 13 10 7 27 25 15 29 43 47 40
49 51 53 53 53 51 51 49 44 42 38 38 37 39 25 21 36 33 41 37 40 52 46 45 45 41 46 41 10 13 11 11 29 39 38 39 26 13 12 24 10 15 28 33 29 30 28
51 52 54 55 54 52 51 51 49 49 44 48 49 44 46 28 33 46 42 38 19 13 29 49 29 50 34 5 4 8 14 20 13 11 42 43 43 23 14 14 24 26 34 40 5 14 14
52 54 55 56 53 56 57 56 58 53 49 50 57 54 55 34 70 44 34 27 27 22 12 32 12 14 31 6 6 10 20 16 15 11 5 9 25 42 34 14 14 13 12 34 26 17 21
54 55 55 55 54 58 58 62 59 50 47 48 61 52 57 54 81 78 80 68 51 29 15 26 26 19 5 6 7 9 7 3 11 13 10 11 10 15 24 22 45 23 14 25 14 34 39
54 55 58 57 58 58 62 64 58 49 48 47 66 56 53 70 66 81 85 67 63 70 60 45 32 21 9 3 5 5 10 6 11 7 4 7 4 5 3 9 13 15 28 36 42 55 43
Wind_Direction_500mb
13 12 11 10 9 10 9 9 8 8 8 10 11 13 13 11 3 356 350 343 340 261 227 232 251 274 322 300 281 271 145 117 60 14 15 354 25 6 11 313 333 150 174 220 180 166 162
6 6 6 5 4 3 3 3 3 3 3 3 5 7 9 9 2 354 346 329 311 278 228 238 266 287 305 290 111 67 181 161 106 3 5 32 3 338 293 310 74 319 153 272 273 232 210
5 3 2 1 0 359 358 357 356 356 356 358 358 359 2 3 2 353 351 346 282 292 250 242 260 286 293 264 221 223 153 130 19 290 327 356 345 332 342 331 346 357 358 350 261 241 209
1 1 359 358 357 357 356 354 353 352 351 350 351 352 353 355 356 355 349 357 323 257 267 276 282 297 271 197 209 220 235 204 241 284 347 320 323 306 283 320 348 5 53 34 277 177 222
2 1 1 360 358 357 358 356 354 351 349 347 345 344 347 347 348 350 344 2 5 293 250 258 302 317 271 255 209 222 228 254 287 234 256 295 290 283 306 72 6 349 231 206 308 216 138
2 1 1 1 1 360 359 358 356 354 352 349 345 341 340 344 343 346 351 332 331 297 244 261 267 298 255 231 219 227 207 236 260 267 297 229 219 0 15 89 213 213 223 221 253 50 119
7 5 3 1 359 359 359 357 356 355 353 352 349 344 338 340 341 357 17 21 9 4 277 255 255 235 268 166 192 188 197 212 246 232 220 274 119 225 232 208 212 237 198 259 250 263 223
2 1 359 357 357 359 1 1 359 358 355 354 351 347 343 340 337 335 357 360 354 317 296 276 259 250 259 255 263 243 192 198 192 231 305 341 234 241 236 216 200 191 218 260 292 230 170
358 357 356 358 360 0 1 1 360 357 355 354 352 346 344 345 331 332 22 16 3 336 293 301 259 247 235 243 239 232 197 198 186 222 254 204 249 239 218 209 198 219 194 222 231 319 354
355 355 357 359 0 360 359 359 358 356 354 354 352 346 342 342 357 333 356 350 360 344 32 283 242 280 189 216 269 233 209 197 202 209 258 251 286 279 268 220 170 228 219 93 44 47 233
355 357 358 358 358 358 357 357 357 356 352 353 352 348 337 334 325 333 339 349 348 334 352 266 254 159 167 169 161 171 212 178 173 230 75 253 311 349 332 225 175 225 115 111 113 48 346
355 357 357 358 358 356 355 356 355 353 350 351 352 349 333 332 329 348 341 351 335 47 262 330 46 226 121 206 175 129 127 158 162 177 204 235 266 238 233 49 94 126 66 35 50 101 303
352 354 355 357 357 356 354 352 350 351 349 348 351 352 345 20 13 19 2 8 36 155 318 102 25 350 324 236 191 157 169 171 178 147 259 292 228 241 185 204 154 85 65 349 328 349 232
350 352 353 352 352 351 350 348 347 348 348 345 348 2 20 29 4 1 3 51 194 264 282 357 357 324 218 338 335 336 249 199 263 179 175 197 309 185 179 190 196 178 149 156 228 217 269
347 348 348 349 349 348 347 347 347 347 349 343 344 4 41 21 24 359 15 79 210 239 350 353 336 332 354 338 324 311 230 230 201 186 186 194 247 233 173 181 160 183 157 178 100 297 20
344 344 345 346 347 347 346 346 346 346 348 349 346 341 321 340 332 340 84 219 243 317 323 326 318 291 308 318 310 319 290 284 276 185 214 228 259 214 167 104 69 142 166 81 7 216 248
343 343 343 344 345 345 347 347 346 345 348 352 357 336 325 335 327 300 184 230 298 293 296 315 293 287 315 4 331 302 256 295 279 226 156 161 165 275 131 182 169 143 177 90 129 149 182
344 343 342 341 342 343 346 347 348 349 347 351 3 339 337 350 348 341 235 320 329 316 342 2 353 2 24 337 293 299 282 273 326 291 232 186 159 216 216 224 181 180 182 150 140 231 221
340 340 339 338 339 340 343 344 346 350 355 354 336 296 348 335 318 341 321 339 312 12 351 350 308 16 334 291 314 318 304 326 330 342 296 201 204 43 326 337 318 199 186 174 128 103 212
336 336 335 335 337 338 339 342 342 345 350 351 331 330 318 319 2 26 2 293 333 329 314 341 288 305 353 306 232 285 306 308 343 330 318 259 186 176 229 227 184 200 199 202 190 183 219
335 337 338 338 337 338 336 338 338 338 343 349 313 278 14 297 324 330 315 290 297 305 261 331 308 326 313 295 305 286 269 311 306 327 344 21 226 193 212 193 213 200 198 205 202 226 200
337 338 339 338 337 334 333 332 333 334 335 348 310 341 333 296 289 265 247 258 284 297 295 294 291 319 313 278 264 297 312 285 250 334 351 4 303 260 236 222 212 243 247 240 242 242 260
334 335 334 333 332 329 329 328 328 330 334 326 289 295 318 258 255 295 257 270 279 299 290 304 307 298 295 291 307 299 278 262 234 199 284 305 291 332 255 234 228 241 237 242 251 252 233
330 330 331 331 331 329 327 326 323 320 313 293 288 290 275 274 277 260 283 281 289 291 288 299 304 299 297 311 313 302 270 230 222 235 214 247 235 275 268 175 220 242 218 234 240 241 240
326 327 328 328 326 327 327 322 321 317 309 288 280 273 265 271 266 273 269 275 286 288 287 295 293 286 310 306 301 286 281 264 238 229 224 217 222 216 256 218 272 285 223 225 232 244 229
323 325 325 325 324 325 322 318 315 309 300 288 279 268 262 278 268 277 274 274 277 288 291 281 265 301 298 289 272 243 262 265 253 294 221 217 214 219 222 212 202 246 234 251 67 267 211
320 321 321 323 322 323 321 319 316 310 302 290 281 273 257 252 269 268 254 263 262 253 269 282 280 311 310 230 238 232 258 254 245 228 244 271 212 222 218 261 278 217 224 203 203 246 177
319 319 320 321 322 323 321 321 315 310 305 297 287 274 259 254 263 259 260 261 264 250 258 281 315 292 253 216 207 227 234 325 299 256 216 221 237 231 215 224 246 191 162 172 198 153 149
317 319 321 319 322 323 325 325 322 315 309 301 290 287 278 257 264 272 269 266 257 255 249 251 243 244 280 357 292 308 312 273 244 260 75 261 264 273 251 261 264 191 186 200 164 155 164
Wind_Speed_850mb
41 42 43 44 45 46 46 47 47 48 49 49 51 53 54 44 32 29 27 21 14 5 10 12 13 13 16 9 13 7 21 12 10 16 21 17 16 13 2 9 9 8 1 2 14 24 21
44 44 44 44 45 46 46 46 47 47 47 47 47 47 48 48 38 31 32 23 11 5 11 13 14 14 15 8 6 2 15 8 3 9 14 22 12 18 5 7 4 8 5 2 6 6 8
42 44 46 46 46 47 48 48 48 48 48 47 46 44 43 44 43 35 32 22 8 4 8 10 11 13 22 22 10 3 7 5 3 12 9 18 19 14 18 14 25 9 7 11 13 17 10
44 44 45 46 47 47 49 50 50 50 49 48 47 44 42 40 41 37 29 19 4 7 8 10 11 14 18 6 21 21 9 13 14 8 8 18 19 18 7 12 16 8 9 3 16 14 13
44 45 45 46 48 49 49 50 50 50 50 49 48 46 43 40 39 36 22 14 10 5 8 11 13 10 24 10 33 26 21 17 16 23 15 16 14 5 6 7 10 8 6 12 17 12 11
45 46 46 47 48 49 51 52 53 53 52 52 50 47 43 39 38 35 18 16 17 12 10 16 22 16 28 15 27 27 19 21 14 6 11 10 8 2 7 8 10 10 8 7 5 2 6
44 45 47 48 49 49 51 53 54 54 55 54 54 51 45 36 33 23 22 18 24 4 8 24 26 31 32 9 30 34 21 15 10 10 6 13 5 15 24 18 12 8 3 4 8 9 4
45 46 48 49 49 49 50 51 53 55 56 56 57 55 50 35 25 16 23 24 16 26 27 39 53 65 59 47 17 25 19 17 12 11 3 9 13 28 18 14 15 9 5 7 12 6 4
46 48 48 47 49 51 52 54 54 55 56 57 57 58 56 40 16 9 17 38 19 32 14 39 36 46 66 51 41 38 32 33 10 6 13 13 17 12 14 14 11 7 8 8 14 6 7
48 47 46 47 48 51 53 53 55 56 56 56 55 55 53 47 6 24 6 24 19 31 8 15 7 7 25 30 15 42 33 27 10 10 9 13 17 11 13 13 12 7 8 3 8 9 7
48 45 45 46 48 50 51 52 53 55 58 57 56 57 53 41 37 19 24 16 18 14 6 8 3 4 27 27 9 6 37 23 12 9 5 16 22 11 12 11 14 13 11 8 5 3 4
44 42 42 44 47 49 49 51 54 56 58 59 58 58 55 41 31 13 22 20 17 10 10 9 6 4 13 36 8 15 10 12 9 6 7 16 25 7 9 1 3 8 10 13 9 7 4
42 42 43 45 47 49 50 53 54 56 60 61 61 61 39 31 29 12 14 12 10 5 11 4 17 17 15 7 12 15 15 11 13 4 7 7 9 9 14 9 1 11 12 7 8 4 12
43 42 43 44 46 47 49 51 54 56 59 63 62 47 29 27 26 4 19 10 5 8 12 13 22 16 7 9 11 11 3 11 11 8 6 7 15 10 8 18 22 13 18 11 14 6 8
43 42 42 43 45 47 50 53 55 58 59 64 63 40 24 34 26 17 6 5 12 8 8 23 31 12 5 22 7 10 11 20 20 27 19 13 15 15 4 8 21 9 9 17 6 2 2
42 42 42 44 46 48 52 54 58 60 59 59 63 53 4 43 18 12 7 10 9 18 31 28 14 12 23 31 18 11 7 10 9 16 34 17 22 11 7 11 2 11 11 8 5 6 9
41 43 44 44 47 48 50 54 58 61 61 58 46 27 8 41 24 7 6 11 10 38 36 9 25 23 12 13 19 12 14 26 23 7 12 8 11 12 13 12 19 5 4 6 9 10 10
42 43 45 46 45 48 50 52 56 60 62 58 27 9 40 49 12 4 2 8 30 34 27 14 9 11 10 21 12 14 17 11 49 27 12 12 11 10 22 8 17 16 18 14 10 10 9
42 43 44 46 46 46 48 49 50 52 56 58 35 17 15 45 4 7 15 17 15 19 17 11 8 9 7 7 13 6 18 27 41 22 11 9 4 3 16 12 5 10 11 13 8 7 19
44 43 43 45 47 48 48 46 47 47 46 45 19 7 11 27 13 7 11 10 10 31 23 20 18 15 8 17 11 15 29 20 48 39 50 34 13 18 26 17 10 9 14 28 23 10 18
41 42 43 45 46 46 48 48 47 45 42 37 7 9 9 7 21 29 25 12 28 22 14 26 13 16 17 17 25 26 12 27 27 23 29 13 15 16 18 19 16 13 12 14 21 29 21
41 43 45 47 48 50 49 49 48 44 42 22 12 13 16 23 36 21 9 10 35 33 30 29 22 25 21 14 16 30 17 8 9 11 14 12 13 15 36 28 25 31 15 17 28 23 24
45 47 48 49 50 51 51 48 46 39 27 12 14 32 27 16 11 9 12 27 33 35 29 40 34 24 24 24 32 57 57 49 23 10 8 6 8 12 25 31 24 20 43 37 29 32 20
46 49 51 53 52 51 49 47 42 35 26 30 34 35 20 24 20 18 23 41 33 43 44 42 46 18 28 53 57 42 35 35 36 32 33 23 22 13 10 7 27 25 15 29 43 47 40
49 51 53 53 53 51 51 49 44 42 38 38 37 39 25 21 36 33 41 37 40 52 46 45 45 41 46 41 10 13 11 11 29 39 38 39 26 13 12 24 10 15 28 33 29 30 28
51 52 54 55 54 52 51 51 49 49 44 48 49 44 46 28 33 46 42 38 19 13 29 49 29 50 34 5 4 8 14 20 13 11 42 43 43 23 14 14 24 26 34 40 5 14 14
52 54 55 56 53 56 57 56 58 53 49 50 57 54 55 34 70 44 34 27 27 22 12 32 12 14 31 6 6 10 20 16 15 11 5 9 25 42 34 14 14 13 12 34 26 17 21
54 55 55 55 54 58 58 62 59 50 47 48 61 52 57 54 81 78 80 68 51 29 15 26 26 19 5 6 7 9 7 3 11 13 10 11 10 15 24 22 45 23 14 25 14 34 39
54 55 58 57 58 58 62 64 58 49 48 47 66 56 53 70 66 81 85 67 63 70 60 45 32 21 9 3 5 5 10 6 11 7 4 7 4 5 3 9 13 15 28 36 42 55 43
Wind_Direction_850mb
13 12 11 10 9 10 9 9 8 8 8 10 11 13 13 11 3 356 350 343 340 261 227 232 251 274 322 300 281 271 145 117 60 14 15 354 25 6 11 313 333 150 174 220 180 166 162
6 6 6 5 4 3 3 3 3 3 3 3 5 7 9 9 2 354 346 329 311 278 228 238 266 287 305 290 111 67 181 161 106 3 5 32 3 338 293 310 74 319 153 272 273 232 210
5 3 2 1 0 359 358 357 356 356 356 358 358 359 2 3 2 353 351 346 282 292 250 242 260 286 293 264 221 223 153 130 19 290 327 356 345 332 342 331 346 357 358 350 261 241 209
1 1 359 358 357 357 356 354 353 352 351 350 351 352 353 355 356 355 349 357 323 257 267 276 282 297 271 197 209 220 235 204 241 284 347 320 323 306 283 320 348 5 53 34 277 177 222
2 1 1 360 358 357 358 356 354 351 349 347 345 344 347 347 348 350 344 2 5 293 250 258 302 317 271 255 209 222 228 254 287 234 256 295 290 283 306 72 6 349 231 206 308 216 138
2 1 1 1 1 360 359 358 356 354 352 349 345 341 340 344 343 346 351 332 331 297 244 261 267 298 255 231 219 227 207 236 260 267 297 229 219 0 15 89 213 213 223 221 253 50 119
7 5 3 1 359 359 359 357 356 355 353 352 349 344 338 340 341 357 17 21 9 4 277 255 255 235 268 166 192 188 197 212 246 232 220 274 119 225 232 208 212 237 198 259 250 263 223
2 1 359 357 357 359 1 1 359 358 355 354 351 347 343 340 337 335 357 360 354 317 296 276 259 250 259 255 263 243 192 198 192 231 305 341 234 241 236 216 200 191 218 260 292 230 170
358 357 356 358 360 0 1 1 360 357 355 354 352 346 344 345 331 332 22 16 3 336 293 301 259 247 235 243 239 232 197 198 186 222 254 204 249 239 218 209 198 219 194 222 231 319 354
355 355 357 359 0 360 359 359 358 356 354 354 352 346 342 342 357 333 356 350 360 344 32 283 242 280 189 216 269 233 209 197 202 209 258 251 286 279 268 220 170 228 219 93 44 47 233
355 357 358 358 358 358 357 357 357 356 352 353 352 348 337 334 325 333 339 349 348 334 352 266 254 159 167 169 161 171 212 178 173 230 75 253 311 349 332 225 175 225 115 111 113 48 346
355 357 357 358 358 356 355 356 355 353 350 351 352 349 333 332 329 348 341 351 335 47 262 330 46 226 121 206 175 129 127 158 162 177 204 235 266 238 233 49 94 126 66 35 50 101 303
352 354 355 357 357 356 354 352 350 351 349 348 351 352 345 20 13 19 2 8 36 155 318 102 25 350 324 236 191 157 169 171 178 147 259 292 228 241 185 204 154 85 65 349 328 349 232
350 352 353 352 352 351 350 348 347 348 348 345 348 2 20 29 4 1 3 51 194 264 282 357 357 324 218 338 335 336 249 199 263 179 175 197 309 185 179 190 196 178 149 156 228 217 269
347 348 348 349 349 348 347 347 347 347 349 343 344 4 41 21 24 359 15 79 210 239 350 353 336 332 354 338 324 311 230 230 201 186 186 194 247 233 173 181 160 183 157 178 100 297 20
344 344 345 346 347 347 346 346 346 346 348 349 346 341 321 340 332 340 84 219 243 317 323 326 318 291 308 318 310 319 290 284 276 185 214 228 259 214 167 104 69 142 166 81 7 216 248
343 343 343 344 345 345 347 347 346 345 348 352 357 336 325 335 327 300 184 230 298 293 296 315 293 287 315 4 331 302 256 295 279 226 156 161 165 275 131 182 169 143 177 90 129 149 182
344 343 342 341 342 343 346 347 348 349 347 351 3 339 337 350 348 341 235 320 329 316 342 2 353 2 24 337 293 299 282 273 326 291 232 186 159 216 216 224 181 180 182 150 140 231 221
340 340 339 338 339 340 343 344 346 350 355 354 336 296 348 335 318 341 321 339 312 12 351 350 308 16 334 291 314 318 304 326 330 342 296 201 204 43 326 337 318 199 186 174 128 103 212
336 336 335 335 337 338 339 342 342 345 350 351 331 330 318 319 2 26 2 293 333 329 314 341 288 305 353 306 232 285 306 308 343 330 318 259 186 176 229 227 184 200 199 202 190 183 219
335 337 338 338 337 338 336 338 338 338 343 349 313 278 14 297 324 330 315 290 297 305 261 331 308 326 313 295 305 286 269 311 306 327 344 21 226 193 212 193 213 200 198 205 202 226 200
337 338 339 338 337 334 333 332 333 334 335 348 310 341 333 296 289 265 247 258 284 297 295 294 291 319 313 278 264 297 312 285 250 334 351 4 303 260 236 222 212 243 247 240 242 242 260
334 335 334 333 332 329 329 328 328 330 334 326 289 295 318 258 255 295 257 270 279 299 290 304 307 298 295 291 307 299 278 262 234 199 284 305 291 332 255 234 228 241 237 242 251 252 233
330 330 331 331 331 329 327 326 323 320 313 293 288 290 275 274 277 260 283 281 289 291 288 299 304 299 297 311 313 302 270 230 222 235 214 247 235 275 268 175 220 242 218 234 240 241 240
326 327 328 328 326 327 327 322 321 317 309 288 280 273 265 271 266 273 269 275 286 288 287 295 293 286 310 306 301 286 281 264 238 229 224 217 222 216 256 218 272 285 223 225 232 244 229
323 325 325 325 324 325 322 318 315 309 300 288 279 268 262 278 268 277 274 274 277 288 291 281 265 301 298 289 272 243 262 265 253 294 221 217 214 219 222 212 202 246 234 251 67 267 211
320 321 321 323 322 323 321 319 316 310 302 290 281 273 257 252 269 268 254 263 262 253 269 282 280 311 310 230 238 232 258 254 245 228 244 271 212 222 218 261 278 217 224 203 203 246 177
319 319 320 321 322 323 321 321 315 310 305 297 287 274 259 254 263 259 260 261 264 250 258 281 315 292 253 216 207 227 234 325 299 256 216 221 237 231 215 224 246 191 162 172 198 153 149
317 319 321 319 322 323 325 325 322 315 309 301 290 287 278 257 264 272 269 266 257 255 249 251 243 244 280 357 292 308 312 273 244 260 75 261 264 273 251 261 264 191 186 200 164 155 164